Satellite: METEOR-M Catalog number: 35865 Epoch time: 11027.69001505 Element set: 48 Inclination: 098.7269 deg RA of node: 084.5111 deg Eccentricity: 0.0003225 Arg of perigee: 076.3436 deg Mean anomaly: 283.8059 deg Mean motion: 14.21834304 rev/day Decay rate: 1.76e-06 rev/day^2 Epoch rev: 7062 Checksum: 282
Satellite: RS-38 Catalog number: 35869 Epoch time: 11027.70684042 Element set: 61 Inclination: 098.7257 deg RA of node: 084.5699 deg Eccentricity: 0.0005443 Arg of perigee: 077.1911 deg Mean anomaly: 282.9834 deg Mean motion: 14.21998872 rev/day Decay rate: 1.77e-06 rev/day^2 Epoch rev: 7063 Checksum: 340
/EX